Location: Marsån
(66.4167°N, 22.2833°E)
Time: 11:42:22
(UTC+00:00)

Cosmos 1943 - Pass Details

Date: 24 February 2024
Orbit: 831 x 850 km, 71.0° (Epoch: 15 April)

Event Time Altitude Azimuth Distance (km) Brightness Sun altitude
Rises 21:40:10 0° 308° (NW) 3,423 7.1 -31.9°
Reaches altitude 10° 21:42:38 10° 307° (NW) 2,487 6.2 -32.0°
Enters shadow 21:46:39 47° 297° (WNW) 1,118 3.9 -32.1°
